| time (UTC) | temp C | wind direction | speed KPH | gust KPH | rain 1hr cm | rain 24hr cm | rain mn cm | humidity % | barometer mb |
| 20260502152316 | 13 | 82 | 1.6 | 6.4 | 0.00 | 0.10 | 0.10 | 68 | 1008.0 |
| 20260502152116 | 13 | 0 | 1.6 | 6.4 | 0.00 | 0.10 | 0.10 | 69 | 1008.1 |
| 20260502151916 | 13 | 0 | 1.6 | 6.4 | 0.00 | 0.10 | 0.10 | 69 | 1008.1 |
| 20260502151716 | 13 | 50 | 1.6 | 6.4 | 0.00 | 0.10 | 0.10 | 69 | 1008.1 |
| 20260502151516 | 13 | 0 | 3.2 | 6.4 | 0.00 | 0.10 | 0.10 | 68 | 1008.1 |
| 20260502151316 | 13 | 277 | 1.6 | 6.4 | 0.00 | 0.10 | 0.10 | 69 | 1008.2 |
| 20260502151116 | 13 | 0 | 3.2 | 8.0 | 0.00 | 0.10 | 0.10 | 69 | 1008.2 |
| 20260502150917 | 13 | 309 | 3.2 | 8.0 | 0.00 | 0.10 | 0.10 | 69 | 1008.1 |
| 20260502150717 | 13 | 236 | 3.2 | 8.0 | 0.00 | 0.10 | 0.10 | 69 | 1008.2 |
| 20260502150516 | 12 | 254 | 3.2 | 8.0 | 0.00 | 0.10 | 0.10 | 70 | 1008.2 |
| 20260502150317 | 12 | 0 | 3.2 | 8.0 | 0.00 | 0.10 | 0.10 | 69 | 1008.3 |
| 20260502150116 | 13 | 243 | 3.2 | 8.0 | 0.00 | 0.10 | 0.10 | 69 | 1008.3 |
| 20260502130716 | 11 | 1 | 1.6 | 6.4 | 0.00 | 0.10 | 0.10 | 82 | 1008.4 |
| 20260502130457 | 11 | 38 | 1.6 | 6.4 | 0.00 | 0.10 | 0.10 | 82 | 1008.4 |
| 20260502130251 | 11 | 83 | 1.6 | 6.4 | 0.00 | 0.10 | 0.10 | 82 | 1008.4 |
| 20260502123651 | 11 | 343 | 3.2 | 6.4 | 0.00 | 0.10 | 0.10 | 86 | 1008.3 |
| 20260502123451 | 11 | 256 | 1.6 | 6.4 | 0.00 | 0.10 | 0.10 | 86 | 1008.3 |
| 20260502123252 | 11 | 318 | 1.6 | 6.4 | 0.00 | 0.10 | 0.10 | 87 | 1008.3 |
| 20260502123052 | 10 | 307 | 1.6 | 6.4 | 0.00 | 0.10 | 0.10 | 88 | 1008.2 |
| 20260502122652 | 10 | 301 | 1.6 | 6.4 | 0.00 | 0.10 | 0.10 | 88 | 1008.2 |
| 20260502122457 | 10 | 0 | 1.6 | 6.4 | 0.00 | 0.10 | 0.10 | 88 | 1008.2 |
| 20260502122249 | 10 | 332 | 1.6 | 6.4 | 0.00 | 0.10 | 0.10 | 88 | 1008.2 |
| 20260502122049 | 10 | 326 | 1.6 | 6.4 | 0.00 | 0.10 | 0.10 | 89 | 1008.2 |
| 20260502121849 | 10 | 20 | 1.6 | 6.4 | 0.00 | 0.10 | 0.10 | 89 | 1008.3 |
| 20260502121648 | 10 | 0 | 1.6 | 6.4 | 0.00 | 0.10 | 0.10 | 89 | 1008.3 |
| 20260502121445 | 10 | 301 | 1.6 | 6.4 | 0.00 | 0.10 | 0.10 | 89 | 1008.3 |
| 20260502121245 | 10 | 0 | 1.6 | 4.8 | 0.00 | 0.10 | 0.10 | 89 | 1008.3 |
| 20260502121043 | 10 | 296 | 1.6 | 4.8 | 0.00 | 0.10 | 0.10 | 90 | 1008.3 |
| 20260502120843 | 10 | 10 | 0.0 | 4.8 | 0.00 | 0.10 | 0.10 | 90 | 1008.3 |
| 20260502120643 | 10 | 0 | 0.0 | 4.8 | 0.00 | 0.10 | 0.10 | 90 | 1008.3 |
| 20260502120439 | 10 | 324 | 0.0 | 4.8 | 0.00 | 0.10 | 0.10 | 91 | 1008.3 |
| 20260502120239 | 10 | 0 | 0.0 | 4.8 | 0.00 | 0.10 | 0.10 | 91 | 1008.3 |
| 20260502115839 | 10 | 0 | 1.6 | 4.8 | 0.00 | 0.10 | 0.10 | 91 | 1008.4 |
| 20260502115640 | 10 | 0 | 1.6 | 4.8 | 0.00 | 0.10 | 0.10 | 91 | 1008.4 |
| 20260502115438 | 10 | 271 | 0.0 | 4.8 | 0.00 | 0.10 | 0.10 | 92 | 1008.4 |
| 20260502115237 | 10 | 335 | 0.0 | 4.8 | 0.00 | 0.10 | 0.10 | 92 | 1008.4 |
| 20260502115037 | 10 | 0 | 0.0 | 3.2 | 0.05 | 0.10 | 0.10 | 92 | 1008.4 |
| 20260502114833 | 10 | 0 | 0.0 | 3.2 | 0.05 | 0.10 | 0.10 | 92 | 1008.5 |
| 20260502114631 | 10 | 0 | 0.0 | 3.2 | 0.05 | 0.10 | 0.10 | 92 | 1008.5 |
| 20260502114431 | 10 | 271 | 0.0 | 3.2 | 0.05 | 0.10 | 0.10 | 93 | 1008.4 |
| 20260502114230 | 10 | 0 | 0.0 | 3.2 | 0.05 | 0.10 | 0.10 | 93 | 1008.5 |
| 20260502114031 | 10 | 240 | 0.0 | 3.2 | 0.10 | 0.10 | 0.10 | 93 | 1008.4 |
| 20260502113831 | 10 | 0 | 0.0 | 3.2 | 0.10 | 0.10 | 0.10 | 92 | 1008.4 |
| 20260502113630 | 10 | 269 | 0.0 | 3.2 | 0.10 | 0.10 | 0.10 | 92 | 1008.4 |
| 20260502113430 | 10 | 269 | 0.0 | 3.2 | 0.10 | 0.10 | 0.10 | 92 | 1008.3 |
| 20260502113230 | 10 | 0 | 0.0 | 1.6 | 0.10 | 0.10 | 0.10 | 92 | 1008.3 |
| 20260502113030 | 10 | 206 | 0.0 | 1.6 | 0.10 | 0.10 | 0.10 | 92 | 1008.3 |
| 20260502112829 | 10 | 0 | 0.0 | 4.8 | 0.10 | 0.10 | 0.10 | 92 | 1008.1 |
| 20260502112630 | 10 | 0 | 0.0 | 4.8 | 0.10 | 0.10 | 0.10 | 92 | 1008.0 |
| 20260502112430 | 10 | 0 | 1.6 | 4.8 | 0.10 | 0.10 | 0.10 | 92 | 1007.9 |
| 20260502112230 | 10 | 0 | 1.6 | 4.8 | 0.10 | 0.10 | 0.10 | 92 | 1007.9 |
| 20260502112029 | 10 | 171 | 1.6 | 4.8 | 0.10 | 0.10 | 0.10 | 92 | 1007.8 |
| 20260502111829 | 10 | 84 | 1.6 | 4.8 | 0.10 | 0.10 | 0.10 | 92 | 1007.7 |
| 20260502111630 | 10 | 119 | 0.0 | 3.2 | 0.10 | 0.10 | 0.10 | 92 | 1007.6 |
| 20260502111429 | 10 | 96 | 0.0 | 3.2 | 0.10 | 0.10 | 0.10 | 91 | 1007.6 |
| 20260502111230 | 10 | 0 | 0.0 | 3.2 | 0.10 | 0.10 | 0.10 | 91 | 1007.6 |
| 20260502111030 | 10 | 0 | 0.0 | 3.2 | 0.10 | 0.10 | 0.10 | 91 | 1007.6 |
| 20260502110830 | 10 | 0 | 0.0 | 3.2 | 0.10 | 0.10 | 0.10 | 91 | 1007.6 |
| 20260502110630 | 10 | 107 | 1.6 | 3.2 | 0.10 | 0.10 | 0.10 | 90 | 1007.6 |
| 20260502110430 | 10 | 0 | 1.6 | 3.2 | 0.10 | 0.10 | 0.10 | 90 | 1007.5 |
| 20260502110230 | 10 | 51 | 1.6 | 3.2 | 0.10 | 0.10 | 0.10 | 90 | 1007.5 |
| 20260502110030 | 10 | 86 | 1.6 | 3.2 | 0.10 | 0.10 | 0.10 | 89 | 1007.4 |
| 20260502105830 | 10 | 108 | 0.0 | 3.2 | 0.10 | 0.10 | 0.10 | 89 | 1007.4 |
| 20260502105630 | 10 | 150 | 0.0 | 3.2 | 0.10 | 0.10 | 0.10 | 89 | 1007.3 |
| 20260502105430 | 10 | 0 | 0.0 | 3.2 | 0.10 | 0.10 | 0.10 | 88 | 1007.2 |
| 20260502105230 | 10 | 46 | 0.0 | 3.2 | 0.08 | 0.08 | 0.08 | 88 | 1007.3 |
| 20260502105030 | 10 | 347 | 0.0 | 3.2 | 0.05 | 0.05 | 0.05 | 88 | 1007.4 |
| 20260502104830 | 10 | 12 | 0.0 | 3.2 | 0.05 | 0.05 | 0.05 | 87 | 1007.7 |
| 20260502104631 | 10 | 355 | 0.0 | 3.2 | 0.05 | 0.05 | 0.05 | 87 | 1007.7 |
| 20260502104431 | 10 | 42 | 0.0 | 3.2 | 0.05 | 0.05 | 0.05 | 87 | 1007.8 |
| 20260502104230 | 10 | 0 | 1.6 | 6.4 | 0.03 | 0.03 | 0.03 | 86 | 1007.9 |
| 20260502104031 | 10 | 0 | 1.6 | 6.4 | 0.00 | 0.00 | 0.00 | 86 | 1008.1 |
| 20260502103831 | 10 | 0 | 3.2 | 8.0 | 0.00 | 0.00 | 0.00 | 86 | 1008.1 |
| 20260502103630 | 10 | 182 | 3.2 | 8.0 | 0.00 | 0.00 | 0.00 | 86 | 1008.2 |
| 20260502103429 | 10 | 204 | 1.6 | 8.0 | 0.00 | 0.00 | 0.00 | 86 | 1008.0 |
| 20260502103229 | 10 | 217 | 1.6 | 8.0 | 0.00 | 0.00 | 0.00 | 86 | 1008.0 |
| 20260502103029 | 10 | 244 | 1.6 | 8.0 | 0.00 | 0.00 | 0.00 | 86 | 1007.9 |
| 20260502102829 | 10 | 0 | 0.0 | 3.2 | 0.00 | 0.00 | 0.00 | 86 | 1007.8 |
| 20260502102629 | 10 | 202 | 0.0 | 3.2 | 0.00 | 0.00 | 0.00 | 86 | 1007.7 |
| 20260502102428 | 10 | 0 | 1.6 | 3.2 | 0.00 | 0.00 | 0.00 | 86 | 1007.8 |
| 20260502102230 | 10 | 263 | 1.6 | 6.4 | 0.00 | 0.00 | 0.00 | 86 | 1007.8 |
| 20260502102029 | 10 | 0 | 1.6 | 8.0 | 0.00 | 0.00 | 0.00 | 86 | 1007.8 |
| 20260502101828 | 10 | 0 | 1.6 | 8.0 | 0.00 | 0.00 | 0.00 | 85 | 1007.9 |
| 20260502101629 | 10 | 232 | 3.2 | 8.0 | 0.00 | 0.00 | 0.00 | 85 | 1007.9 |
| 20260502101449 | 10 | 257 | 1.6 | 8.0 | 0.00 | 0.00 | 0.00 | 85 | 1007.9 |
| 20260502101230 | 10 | 226 | 1.6 | 8.0 | 0.00 | 0.00 | 0.00 | 85 | 1008.0 |
| 20260502101029 | 10 | 240 | 1.6 | 8.0 | 0.00 | 0.00 | 0.00 | 85 | 1008.0 |
| 20260502100829 | 10 | 256 | 1.6 | 4.8 | 0.00 | 0.00 | 0.00 | 85 | 1007.9 |
| 20260502100630 | 10 | 237 | 1.6 | 4.8 | 0.00 | 0.00 | 0.00 | 85 | 1007.9 |
| 20260502100430 | 10 | 195 | 1.6 | 6.4 | 0.00 | 0.00 | 0.00 | 85 | 1007.9 |
| 20260502100229 | 10 | 190 | 3.2 | 8.0 | 0.00 | 0.00 | 0.00 | 85 | 1007.9 |
| 20260502091416 | 10 | 159 | 3.2 | 9.7 | 0.00 | 0.00 | 0.00 | 83 | 1007.7 |
| 20260502091215 | 10 | 188 | 3.2 | 9.7 | 0.00 | 0.00 | 0.00 | 83 | 1007.7 |
| 20260502091015 | 10 | 159 | 3.2 | 9.7 | 0.00 | 0.00 | 0.00 | 83 | 1007.6 |
| 20260502090815 | 10 | 176 | 3.2 | 9.7 | 0.00 | 0.00 | 0.00 | 83 | 1007.6 |
| 20260502090615 | 10 | 173 | 3.2 | 9.7 | 0.00 | 0.00 | 0.00 | 83 | 1007.7 |
| 20260502090415 | 10 | 185 | 3.2 | 8.0 | 0.00 | 0.00 | 0.00 | 83 | 1007.8 |
| 20260502090215 | 10 | 177 | 3.2 | 6.4 | 0.00 | 0.00 | 0.00 | 83 | 1007.7 |
| 20260502071354 | 10 | 184 | 3.2 | 8.0 | 0.00 | 0.00 | 0.00 | 80 | 1007.8 |
| 20260502071151 | 10 | 199 | 3.2 | 8.0 | 0.00 | 0.00 | 0.00 | 80 | 1007.9 |
| 20260502070951 | 10 | 174 | 3.2 | 8.0 | 0.00 | 0.00 | 0.00 | 80 | 1007.8 |
| 20260502070751 | 10 | 170 | 3.2 | 8.0 | 0.00 | 0.00 | 0.00 | 80 | 1007.7 |
| 20260502070544 | 10 | 289 | 3.2 | 8.0 | 0.00 | 0.00 | 0.00 | 80 | 1007.7 |
| 20260502070440 | 10 | 180 | 3.2 | 6.4 | 0.00 | 0.00 | 0.00 | 80 | 1007.7 |
| 20260502070145 | 10 | 219 | 3.2 | 6.4 | 0.00 | 0.00 | 0.00 | 80 | 1007.7 |
| 20260502065945 | 10 | 197 | 3.2 | 6.4 | 0.00 | 0.00 | 0.00 | 80 | 1007.7 |
| 20260502065744 | 10 | 198 | 3.2 | 6.4 | 0.00 | 0.00 | 0.00 | 80 | 1007.7 |
| 20260502065545 | 10 | 179 | 3.2 | 6.4 | 0.00 | 0.00 | 0.00 | 80 | 1007.8 |
| 20260502065439 | 10 | 180 | 3.2 | 8.0 | 0.00 | 0.00 | 0.00 | 79 | 1007.8 |
| 20260502065144 | 10 | 0 | 3.2 | 8.0 | 0.00 | 0.00 | 0.00 | 79 | 1007.8 |
| 20260502064944 | 10 | 183 | 3.2 | 8.0 | 0.00 | 0.00 | 0.00 | 79 | 1007.9 |
| 20260502064745 | 10 | 174 | 3.2 | 8.0 | 0.00 | 0.00 | 0.00 | 79 | 1007.9 |
| 20260502064544 | 10 | 186 | 3.2 | 8.0 | 0.00 | 0.00 | 0.00 | 79 | 1007.9 |
| 20260502064342 | 10 | 186 | 1.6 | 8.0 | 0.00 | 0.00 | 0.00 | 79 | 1007.9 |
| 20260502064142 | 10 | 176 | 3.2 | 6.4 | 0.00 | 0.00 | 0.00 | 78 | 1007.9 |
| 20260502063738 | 10 | 0 | 3.2 | 6.4 | 0.00 | 0.00 | 0.00 | 78 | 1008.0 |
| 20260502063536 | 10 | 155 | 3.2 | 6.4 | 0.00 | 0.00 | 0.00 | 78 | 1008.0 |
| 20260502063134 | 10 | 156 | 3.2 | 6.4 | 0.00 | 0.00 | 0.00 | 78 | 1007.9 |
| 20260502062934 | 10 | 179 | 3.2 | 6.4 | 0.00 | 0.00 | 0.00 | 78 | 1007.9 |
| 20260502062734 | 10 | 151 | 3.2 | 6.4 | 0.00 | 0.00 | 0.00 | 78 | 1007.8 |
| 20260502062534 | 10 | 169 | 1.6 | 6.4 | 0.00 | 0.00 | 0.00 | 78 | 1007.8 |
| 20260502062334 | 10 | 175 | 3.2 | 6.4 | 0.00 | 0.00 | 0.00 | 77 | 1007.9 |
| 20260502062134 | 10 | 0 | 3.2 | 6.4 | 0.00 | 0.00 | 0.00 | 77 | 1007.9 |
| 20260502061933 | 10 | 170 | 3.2 | 6.4 | 0.00 | 0.00 | 0.00 | 77 | 1007.9 |
| 20260502061733 | 10 | 184 | 3.2 | 6.4 | 0.00 | 0.00 | 0.00 | 77 | 1008.0 |
| 20260502061533 | 10 | 173 | 3.2 | 6.4 | 0.00 | 0.00 | 0.00 | 77 | 1008.0 |
| 20260502061332 | 10 | 179 | 1.6 | 4.8 | 0.00 | 0.00 | 0.00 | 77 | 1008.1 |
| 20260502061133 | 10 | 180 | 1.6 | 3.2 | 0.00 | 0.00 | 0.00 | 76 | 1008.2 |
| 20260502060933 | 10 | 183 | 1.6 | 4.8 | 0.00 | 0.00 | 0.00 | 76 | 1008.2 |
| 20260502060733 | 10 | 172 | 1.6 | 6.4 | 0.00 | 0.00 | 0.00 | 76 | 1008.2 |
| 20260502060533 | 10 | 0 | 1.6 | 6.4 | 0.00 | 0.00 | 0.00 | 76 | 1008.2 |
| 20260502060333 | 10 | 289 | 1.6 | 8.0 | 0.00 | 0.00 | 0.00 | 75 | 1008.2 |
| 20260502060133 | 10 | 102 | 3.2 | 8.0 | 0.00 | 0.00 | 0.00 | 75 | 1008.2 |
| 20260502055934 | 10 | 208 | 3.2 | 8.0 | 0.00 | 0.00 | 0.00 | 75 | 1008.2 |
| 20260502055733 | 10 | 282 | 3.2 | 8.0 | 0.00 | 0.00 | 0.00 | 75 | 1008.3 |
| 20260502055533 | 10 | 189 | 3.2 | 8.0 | 0.00 | 0.00 | 0.00 | 76 | 1008.3 |
| 20260502055333 | 10 | 178 | 1.6 | 8.0 | 0.00 | 0.00 | 0.00 | 76 | 1008.4 |
| 20260502055133 | 10 | 180 | 1.6 | 4.8 | 0.00 | 0.00 | 0.00 | 76 | 1008.2 |
| 20260502054933 | 10 | 279 | 1.6 | 4.8 | 0.00 | 0.00 | 0.00 | 75 | 1008.1 |
| 20260502054733 | 10 | 204 | 1.6 | 4.8 | 0.00 | 0.00 | 0.00 | 75 | 1008.0 |
| 20260502054534 | 10 | 193 | 1.6 | 4.8 | 0.00 | 0.00 | 0.00 | 75 | 1007.9 |
| 20260502054428 | 10 | 185 | 1.6 | 4.8 | 0.00 | 0.00 | 0.00 | 75 | 1007.9 |
| 20260502054133 | 10 | 0 | 1.6 | 4.8 | 0.00 | 0.00 | 0.00 | 75 | 1007.9 |
| 20260502053933 | 10 | 0 | 1.6 | 4.8 | 0.00 | 0.00 | 0.00 | 75 | 1008.0 |
| 20260502053733 | 10 | 0 | 1.6 | 4.8 | 0.00 | 0.00 | 0.00 | 74 | 1008.0 |
| 20260502053534 | 10 | 176 | 1.6 | 4.8 | 0.00 | 0.00 | 0.00 | 74 | 1008.0 |
| 20260502053134 | 11 | 164 | 1.6 | 6.4 | 0.00 | 0.00 | 0.00 | 74 | 1008.0 |
| 20260502052933 | 11 | 0 | 1.6 | 6.4 | 0.00 | 0.00 | 0.00 | 74 | 1008.0 |
| 20260502052733 | 11 | 54 | 1.6 | 6.4 | 0.00 | 0.00 | 0.00 | 73 | 1008.0 |
| 20260502052533 | 11 | 0 | 3.2 | 6.4 | 0.00 | 0.00 | 0.00 | 73 | 1008.0 |
| 20260502052429 | 11 | 0 | 3.2 | 6.4 | 0.00 | 0.00 | 0.00 | 73 | 1007.9 |
| 20260502052131 | 11 | 209 | 3.2 | 6.4 | 0.00 | 0.00 | 0.00 | 72 | 1007.9 |
| 20260502051931 | 11 | 173 | 3.2 | 6.4 | 0.00 | 0.00 | 0.00 | 72 | 1007.9 |
| 20260502051731 | 11 | 258 | 3.2 | 6.4 | 0.00 | 0.00 | 0.00 | 72 | 1007.8 |
| 20260502051530 | 11 | 0 | 3.2 | 6.4 | 0.00 | 0.00 | 0.00 | 72 | 1007.8 |
| 20260502051328 | 11 | 148 | 1.6 | 4.8 | 0.00 | 0.00 | 0.00 | 72 | 1007.9 |
| 20260502051128 | 11 | 147 | 1.6 | 4.8 | 0.00 | 0.00 | 0.00 | 72 | 1007.9 |
| 20260502050928 | 11 | 151 | 1.6 | 4.8 | 0.00 | 0.00 | 0.00 | 72 | 1007.9 |
| 20260502050728 | 11 | 167 | 0.0 | 4.8 | 0.00 | 0.00 | 0.00 | 72 | 1007.9 |
| 20260502050528 | 11 | 165 | 0.0 | 4.8 | 0.00 | 0.00 | 0.00 | 72 | 1007.9 |
| 20260502050328 | 11 | 135 | 0.0 | 3.2 | 0.00 | 0.00 | 0.00 | 72 | 1007.9 |
| 20260502050127 | 11 | 98 | 0.0 | 3.2 | 0.00 | 0.00 | 0.00 | 71 | 1007.9 |
| 20260502045927 | 11 | 0 | 0.0 | 4.8 | 0.00 | 0.00 | 0.00 | 71 | 1008.0 |
| 20260502045728 | 11 | 0 | 1.6 | 6.4 | 0.00 | 0.00 | 0.00 | 71 | 1008.0 |
| 20260502045528 | 11 | 0 | 1.6 | 6.4 | 0.00 | 0.00 | 0.00 | 71 | 1008.0 |
| 20260502045328 | 11 | 170 | 1.6 | 6.4 | 0.00 | 0.00 | 0.00 | 71 | 1007.9 |
| 20260502045127 | 11 | 0 | 3.2 | 6.4 | 0.00 | 0.00 | 0.00 | 70 | 1008.0 |
| 20260502044927 | 11 | 159 | 3.2 | 6.4 | 0.00 | 0.00 | 0.00 | 70 | 1008.0 |
| 20260502044728 | 11 | 165 | 3.2 | 6.4 | 0.00 | 0.00 | 0.00 | 70 | 1008.0 |
| 20260502044528 | 11 | 269 | 3.2 | 6.4 | 0.00 | 0.00 | 0.00 | 70 | 1008.1 |
| 20260502044328 | 11 | 148 | 3.2 | 6.4 | 0.00 | 0.00 | 0.00 | 70 | 1008.1 |
| 20260502044129 | 11 | 184 | 3.2 | 6.4 | 0.00 | 0.00 | 0.00 | 71 | 1008.1 |
| 20260502043928 | 11 | 0 | 3.2 | 6.4 | 0.00 | 0.00 | 0.00 | 71 | 1008.1 |
| 20260502043728 | 11 | 0 | 3.2 | 6.4 | 0.00 | 0.00 | 0.00 | 71 | 1008.1 |
| 20260502043528 | 11 | 0 | 3.2 | 6.4 | 0.00 | 0.00 | 0.00 | 71 | 1008.1 |
| 20260502043328 | 11 | 189 | 3.2 | 6.4 | 0.00 | 0.00 | 0.00 | 72 | 1008.2 |
| 20260502043128 | 11 | 178 | 3.2 | 6.4 | 0.00 | 0.00 | 0.00 | 72 | 1008.1 |
| 20260502042928 | 11 | 163 | 3.2 | 6.4 | 0.00 | 0.00 | 0.00 | 72 | 1008.2 |
| 20260502042729 | 11 | 189 | 3.2 | 8.0 | 0.00 | 0.00 | 0.00 | 73 | 1008.3 |
| 20260502042529 | 11 | 174 | 3.2 | 8.0 | 0.00 | 0.00 | 0.00 | 73 | 1008.3 |
| 20260502042329 | 11 | 160 | 3.2 | 8.0 | 0.00 | 0.00 | 0.00 | 73 | 1008.3 |
| 20260502042129 | 11 | 177 | 3.2 | 8.0 | 0.00 | 0.00 | 0.00 | 73 | 1008.3 |
| 20260502041929 | 10 | 175 | 3.2 | 8.0 | 0.00 | 0.00 | 0.00 | 74 | 1008.4 |
| 20260502041729 | 10 | 163 | 3.2 | 6.4 | 0.00 | 0.00 | 0.00 | 74 | 1008.3 |
| 20260502041528 | 10 | 177 | 3.2 | 6.4 | 0.00 | 0.00 | 0.00 | 75 | 1008.3 |
| 20260502041326 | 10 | 175 | 3.2 | 6.4 | 0.00 | 0.00 | 0.00 | 76 | 1008.3 |
| 20260502041126 | 10 | 177 | 3.2 | 6.4 | 0.00 | 0.00 | 0.00 | 76 | 1008.4 |
| 20260502040926 | 10 | 174 | 3.2 | 6.4 | 0.00 | 0.00 | 0.00 | 76 | 1008.3 |
| 20260502040723 | 10 | 160 | 3.2 | 6.4 | 0.00 | 0.00 | 0.00 | 77 | 1008.3 |
| 20260502040523 | 10 | 182 | 3.2 | 6.4 | 0.00 | 0.00 | 0.00 | 77 | 1008.4 |
| 20260502040323 | 10 | 170 | 3.2 | 6.4 | 0.00 | 0.00 | 0.00 | 78 | 1008.4 |
| 20260502040123 | 10 | 179 | 3.2 | 6.4 | 0.00 | 0.00 | 0.00 | 78 | 1008.3 |
| 20260502035923 | 10 | 171 | 3.2 | 6.4 | 0.00 | 0.00 | 0.00 | 78 | 1008.3 |
| 20260502035720 | 10 | 174 | 1.6 | 4.8 | 0.00 | 0.00 | 0.00 | 79 | 1008.2 |
| 20260502035520 | 10 | 176 | 1.6 | 4.8 | 0.00 | 0.00 | 0.00 | 79 | 1008.2 |
| 20260502035119 | 10 | 173 | 1.6 | 4.8 | 0.00 | 0.00 | 0.00 | 80 | 1008.1 |
| 20260502034919 | 10 | 184 | 1.6 | 4.8 | 0.00 | 0.00 | 0.00 | 80 | 1008.1 |
| 20260502034717 | 10 | 128 | 1.6 | 4.8 | 0.00 | 0.00 | 0.00 | 80 | 1008.1 |
| 20260502034514 | 10 | 199 | 1.6 | 4.8 | 0.00 | 0.00 | 0.00 | 80 | 1008.1 |
| 20260502034113 | 10 | 210 | 1.6 | 4.8 | 0.00 | 0.00 | 0.00 | 81 | 1008.0 |
| 20260502033914 | 10 | 154 | 1.6 | 4.8 | 0.00 | 0.00 | 0.00 | 81 | 1008.0 |
| 20260502033715 | 10 | 150 | 1.6 | 4.8 | 0.00 | 0.00 | 0.00 | 82 | 1008.0 |
| 20260502033515 | 10 | 108 | 1.6 | 4.8 | 0.00 | 0.00 | 0.00 | 82 | 1008.0 |
| 20260502033114 | 10 | 0 | 1.6 | 3.2 | 0.00 | 0.00 | 0.00 | 82 | 1008.2 |
| 20260502032921 | 10 | 0 | 1.6 | 3.2 | 0.00 | 0.00 | 0.00 | 82 | 1008.2 |
| 20260502032715 | 10 | 193 | 1.6 | 3.2 | 0.00 | 0.00 | 0.00 | 82 | 1008.3 |
| 20260502032514 | 10 | 172 | 1.6 | 4.8 | 0.00 | 0.00 | 0.00 | 82 | 1008.4 |
| 20260502032114 | 10 | 131 | 1.6 | 6.4 | 0.00 | 0.00 | 0.00 | 82 | 1008.3 |
| 20260502031920 | 10 | 100 | 1.6 | 6.4 | 0.00 | 0.00 | 0.00 | 82 | 1008.4 |
| 20260502031714 | 10 | 160 | 1.6 | 6.4 | 0.00 | 0.00 | 0.00 | 82 | 1008.4 |
| 20260502031515 | 10 | 189 | 1.6 | 6.4 | 0.00 | 0.00 | 0.00 | 82 | 1008.4 |
| 20260502031143 | 10 | 170 | 3.2 | 6.4 | 0.00 | 0.00 | 0.00 | 82 | 1008.4 |
| 20260502030920 | 10 | 191 | 1.6 | 6.4 | 0.00 | 0.00 | 0.00 | 82 | 1008.5 |
| 20260502030714 | 10 | 125 | 1.6 | 4.8 | 0.00 | 0.00 | 0.00 | 82 | 1008.5 |
| 20260502030515 | 10 | 177 | 1.6 | 6.4 | 0.00 | 0.00 | 0.00 | 82 | 1008.5 |
| 20260502030115 | 10 | 185 | 3.2 | 9.7 | 0.00 | 0.00 | 0.00 | 82 | 1008.5 |
| 20260502025915 | 10 | 170 | 3.2 | 9.7 | 0.00 | 0.00 | 0.00 | 82 | 1008.5 |
| 20260502025712 | 10 | 164 | 3.2 | 9.7 | 0.00 | 0.00 | 0.00 | 82 | 1008.6 |
| 20260502025512 | 10 | 188 | 3.2 | 9.7 | 0.00 | 0.00 | 0.00 | 82 | 1008.6 |
| 20260502025111 | 10 | 181 | 3.2 | 8.0 | 0.00 | 0.00 | 0.00 | 82 | 1008.7 |
| 20260502024912 | 10 | 161 | 3.2 | 9.7 | 0.00 | 0.00 | 0.00 | 82 | 1008.7 |
| 20260502024712 | 10 | 192 | 3.2 | 11.3 | 0.00 | 0.00 | 0.00 | 82 | 1008.6 |
| 20260502024512 | 10 | 124 | 3.2 | 11.3 | 0.00 | 0.00 | 0.00 | 82 | 1008.6 |
| 20260502024112 | 10 | 195 | 3.2 | 11.3 | 0.00 | 0.00 | 0.00 | 82 | 1008.7 |
| 20260502023911 | 10 | 174 | 3.2 | 11.3 | 0.00 | 0.00 | 0.00 | 82 | 1008.7 |
| 20260502023712 | 10 | 183 | 3.2 | 8.0 | 0.00 | 0.00 | 0.00 | 81 | 1008.7 |
| 20260502023512 | 10 | 173 | 3.2 | 8.0 | 0.00 | 0.00 | 0.00 | 81 | 1008.7 |
| 20260502023112 | 10 | 173 | 3.2 | 8.0 | 0.00 | 0.00 | 0.00 | 81 | 1008.6 |
| 20260502022912 | 10 | 180 | 3.2 | 6.4 | 0.00 | 0.00 | 0.00 | 81 | 1008.6 |
| 20260502022712 | 10 | 117 | 3.2 | 6.4 | 0.00 | 0.00 | 0.00 | 81 | 1008.6 |
| 20260502022512 | 10 | 169 | 3.2 | 6.4 | 0.00 | 0.00 | 0.00 | 81 | 1008.6 |
| 20260502022112 | 10 | 176 | 3.2 | 8.0 | 0.00 | 0.00 | 0.00 | 81 | 1008.6 |
| 20260502021913 | 10 | 162 | 3.2 | 8.0 | 0.00 | 0.00 | 0.00 | 81 | 1008.6 |
| 20260502021713 | 10 | 187 | 3.2 | 8.0 | 0.00 | 0.00 | 0.00 | 81 | 1008.6 |
| 20260502021511 | 10 | 0 | 3.2 | 8.0 | 0.00 | 0.00 | 0.00 | 81 | 1008.6 |
| 20260502021417 | 10 | 176 | 3.2 | 8.0 | 0.00 | 0.00 | 0.00 | 80 | 1008.6 |
| 20260502021138 | 10 | 179 | 3.2 | 8.0 | 0.00 | 0.00 | 0.00 | 80 | 1008.7 |
| 20260502020918 | 10 | 180 | 3.2 | 8.0 | 0.00 | 0.00 | 0.00 | 80 | 1008.7 |
| 20260502020712 | 10 | 175 | 3.2 | 8.0 | 0.00 | 0.00 | 0.00 | 80 | 1008.6 |
| 20260502020513 | 10 | 184 | 3.2 | 9.7 | 0.00 | 0.00 | 0.00 | 80 | 1008.6 |
| 20260502020112 | 10 | 179 | 4.8 | 9.7 | 0.00 | 0.00 | 0.00 | 79 | 1008.6 |
| 20260502015912 | 10 | 156 | 4.8 | 9.7 | 0.00 | 0.00 | 0.00 | 78 | 1008.6 |
| 20260502015713 | 10 | 183 | 4.8 | 9.7 | 0.00 | 0.00 | 0.00 | 78 | 1008.6 |
| 20260502015513 | 10 | 181 | 4.8 | 9.7 | 0.00 | 0.00 | 0.00 | 78 | 1008.7 |
| 20260502015112 | 10 | 172 | 4.8 | 11.3 | 0.00 | 0.00 | 0.00 | 77 | 1008.6 |
| 20260502014910 | 10 | 173 | 4.8 | 11.3 | 0.00 | 0.00 | 0.00 | 77 | 1008.6 |
| 20260502014709 | 10 | 177 | 4.8 | 11.3 | 0.00 | 0.00 | 0.00 | 76 | 1008.5 |
| 20260502014104 | 10 | 190 | 4.8 | 11.3 | 0.00 | 0.00 | 0.00 | 75 | 1008.6 |
| 20260502013903 | 10 | 182 | 4.8 | 11.3 | 0.00 | 0.00 | 0.00 | 75 | 1008.6 |
| 20260502013704 | 10 | 195 | 4.8 | 11.3 | 0.00 | 0.00 | 0.00 | 75 | 1008.5 |
| 20260502013504 | 10 | 191 | 4.8 | 11.3 | 0.00 | 0.00 | 0.00 | 74 | 1008.5 |
| 20260502013408 | 10 | 177 | 4.8 | 11.3 | 0.00 | 0.00 | 0.00 | 74 | 1008.5 |
| 20260502013104 | 10 | 167 | 4.8 | 11.3 | 0.00 | 0.00 | 0.00 | 74 | 1008.5 |
| 20260502012904 | 10 | 181 | 4.8 | 11.3 | 0.00 | 0.00 | 0.00 | 73 | 1008.4 |
| 20260502012704 | 10 | 177 | 4.8 | 11.3 | 0.00 | 0.00 | 0.00 | 73 | 1008.4 |
| 20260502012504 | 10 | 160 | 4.8 | 11.3 | 0.00 | 0.00 | 0.00 | 73 | 1008.4 |
| 20260502012104 | 11 | 182 | 4.8 | 9.7 | 0.00 | 0.00 | 0.00 | 72 | 1008.4 |
| 20260502011910 | 11 | 190 | 4.8 | 9.7 | 0.00 | 0.00 | 0.00 | 72 | 1008.4 |
| 20260502011704 | 11 | 175 | 4.8 | 8.0 | 0.00 | 0.00 | 0.00 | 71 | 1008.4 |
| 20260502011504 | 11 | 170 | 4.8 | 8.0 | 0.00 | 0.00 | 0.00 | 71 | 1008.4 |
| 20260502011407 | 11 | 169 | 4.8 | 8.0 | 0.00 | 0.00 | 0.00 | 71 | 1008.3 |
| 20260502011103 | 11 | 159 | 4.8 | 11.3 | 0.00 | 0.00 | 0.00 | 71 | 1008.3 |
| 20260502010903 | 11 | 167 | 4.8 | 11.3 | 0.00 | 0.00 | 0.00 | 70 | 1008.2 |
| 20260502010703 | 11 | 165 | 4.8 | 11.3 | 0.00 | 0.00 | 0.00 | 70 | 1008.1 |
| 20260502010503 | 11 | 170 | 4.8 | 12.9 | 0.00 | 0.00 | 0.00 | 70 | 1008.1 |
| 20260502010104 | 11 | 178 | 4.8 | 12.9 | 0.00 | 0.00 | 0.00 | 69 | 1008.1 |
| 20260502005904 | 11 | 145 | 4.8 | 12.9 | 0.00 | 0.00 | 0.00 | 69 | 1008.2 |
| 20260502005703 | 11 | 159 | 4.8 | 12.9 | 0.00 | 0.00 | 0.00 | 68 | 1008.2 |
| 20260502005503 | 11 | 173 | 4.8 | 12.9 | 0.00 | 0.00 | 0.00 | 68 | 1008.2 |
| 20260502005104 | 11 | 165 | 4.8 | 11.3 | 0.00 | 0.00 | 0.00 | 68 | 1008.2 |
| 20260502004904 | 11 | 180 | 4.8 | 11.3 | 0.00 | 0.00 | 0.00 | 68 | 1008.2 |
| 20260502004703 | 11 | 136 | 4.8 | 9.7 | 0.00 | 0.00 | 0.00 | 68 | 1008.2 |
| 20260502004504 | 11 | 166 | 4.8 | 9.7 | 0.00 | 0.00 | 0.00 | 68 | 1008.2 |
| 20260502004103 | 11 | 157 | 4.8 | 11.3 | 0.00 | 0.00 | 0.00 | 68 | 1008.2 |
| 20260502003903 | 11 | 172 | 4.8 | 11.3 | 0.00 | 0.00 | 0.00 | 69 | 1008.2 |
| 20260502003704 | 11 | 178 | 4.8 | 11.3 | 0.00 | 0.00 | 0.00 | 69 | 1008.2 |
| 20260502003504 | 11 | 175 | 4.8 | 11.3 | 0.00 | 0.00 | 0.00 | 69 | 1008.2 |
| 20260502003101 | 11 | 183 | 4.8 | 8.0 | 0.00 | 0.00 | 0.00 | 70 | 1008.2 |
| 20260502002859 | 11 | 179 | 4.8 | 8.0 | 0.00 | 0.00 | 0.00 | 70 | 1008.2 |
| 20260502002656 | 11 | 168 | 4.8 | 8.0 | 0.00 | 0.00 | 0.00 | 70 | 1008.2 |
| 20260502002453 | 11 | 195 | 4.8 | 14.5 | 0.00 | 0.00 | 0.00 | 71 | 1008.2 |
| 20260502002253 | 11 | 166 | 4.8 | 14.5 | 0.00 | 0.00 | 0.00 | 70 | 1008.2 |
| 20260502002054 | 11 | 162 | 4.8 | 14.5 | 0.00 | 0.00 | 0.00 | 70 | 1008.1 |
| 20260502001853 | 11 | 171 | 6.4 | 14.5 | 0.00 | 0.00 | 0.00 | 70 | 1008.1 |
| 20260502001653 | 11 | 183 | 6.4 | 14.5 | 0.00 | 0.00 | 0.00 | 70 | 1008.1 |
| 20260502001453 | 11 | 175 | 6.4 | 14.5 | 0.00 | 0.00 | 0.00 | 70 | 1008.1 |
| 20260502001252 | 11 | 171 | 4.8 | 11.3 | 0.00 | 0.00 | 0.00 | 70 | 1008.1 |
| 20260502001053 | 11 | 182 | 4.8 | 9.7 | 0.00 | 0.00 | 0.00 | 71 | 1008.0 |
| 20260502000853 | 11 | 165 | 4.8 | 9.7 | 0.00 | 0.00 | 0.00 | 71 | 1007.9 |
| 20260502000654 | 11 | 167 | 3.2 | 9.7 | 0.00 | 0.00 | 0.00 | 71 | 1007.9 |
| 20260502000454 | 11 | 171 | 3.2 | 9.7 | 0.00 | 0.00 | 0.00 | 70 | 1007.9 |
| 20260502000252 | 11 | 168 | 4.8 | 9.7 | 0.00 | 0.00 | 0.00 | 70 | 1007.9 |
| 20260502000052 | 11 | 162 | 4.8 | 8.0 | 0.00 | 0.00 | 0.00 | 70 | 1007.9 |
| 20260501235852 | 11 | 162 | 4.8 | 8.0 | 0.00 | 0.00 | 0.00 | 70 | 1007.9 |
| 20260501235652 | 11 | 186 | 4.8 | 9.7 | 0.00 | 0.00 | 0.00 | 70 | 1007.9 |
| 20260501235452 | 11 | 155 | 4.8 | 9.7 | 0.00 | 0.00 | 0.00 | 70 | 1007.9 |
| 20260501235252 | 11 | 217 | 4.8 | 9.7 | 0.00 | 0.00 | 0.00 | 70 | 1007.9 |
| 20260501235052 | 11 | 176 | 4.8 | 9.7 | 0.00 | 0.00 | 0.00 | 70 | 1007.9 |
| 20260501234852 | 11 | 187 | 4.8 | 9.7 | 0.00 | 0.00 | 0.00 | 70 | 1007.9 |
| 20260501234652 | 11 | 171 | 3.2 | 8.0 | 0.00 | 0.00 | 0.00 | 70 | 1007.8 |
| 20260501234452 | 11 | 168 | 3.2 | 8.0 | 0.00 | 0.00 | 0.00 | 70 | 1007.8 |
| 20260501234252 | 11 | 178 | 4.8 | 8.0 | 0.00 | 0.00 | 0.00 | 69 | 1007.8 |
| 20260501234052 | 11 | 161 | 4.8 | 8.0 | 0.00 | 0.00 | 0.00 | 69 | 1007.8 |
| 20260501233852 | 11 | 247 | 4.8 | 8.0 | 0.00 | 0.00 | 0.00 | 69 | 1007.7 |
| 20260501233652 | 11 | 140 | 4.8 | 8.0 | 0.00 | 0.00 | 0.00 | 69 | 1007.7 |
| 20260501233452 | 11 | 159 | 4.8 | 8.0 | 0.00 | 0.00 | 0.00 | 68 | 1007.8 |
| 20260501233252 | 11 | 175 | 4.8 | 8.0 | 0.00 | 0.00 | 0.00 | 68 | 1007.7 |
| 20260501233053 | 11 | 154 | 4.8 | 11.3 | 0.00 | 0.00 | 0.00 | 68 | 1007.7 |
| 20260501232852 | 11 | 144 | 4.8 | 11.3 | 0.00 | 0.00 | 0.00 | 68 | 1007.7 |
| 20260501232652 | 11 | 273 | 6.4 | 11.3 | 0.00 | 0.00 | 0.00 | 67 | 1007.7 |
| 20260501232451 | 11 | 167 | 4.8 | 11.3 | 0.00 | 0.00 | 0.00 | 67 | 1007.6 |
| 20260501232251 | 11 | 181 | 4.8 | 11.3 | 0.00 | 0.00 | 0.00 | 67 | 1007.6 |
| 20260501232050 | 11 | 173 | 4.8 | 11.3 | 0.00 | 0.00 | 0.00 | 67 | 1007.6 |
| 20260501231905 | 11 | 197 | 4.8 | 11.3 | 0.00 | 0.00 | 0.00 | 66 | 1007.6 |
| 20260501231647 | 11 | 151 | 4.8 | 11.3 | 0.00 | 0.00 | 0.00 | 66 | 1007.5 |
| 20260501231445 | 12 | 167 | 6.4 | 11.3 | 0.00 | 0.00 | 0.00 | 66 | 1007.5 |
| 20260501231245 | 12 | 180 | 6.4 | 11.3 | 0.00 | 0.00 | 0.00 | 65 | 1007.5 |
| 20260501231045 | 12 | 199 | 6.4 | 11.3 | 0.00 | 0.00 | 0.00 | 65 | 1007.5 |
| 20260501230845 | 12 | 161 | 6.4 | 12.9 | 0.00 | 0.00 | 0.00 | 65 | 1007.4 |
| 20260501230646 | 12 | 147 | 6.4 | 14.5 | 0.00 | 0.00 | 0.00 | 65 | 1007.4 |
| 20260501230445 | 12 | 168 | 6.4 | 14.5 | 0.00 | 0.00 | 0.00 | 64 | 1007.5 |
| 20260501230245 | 12 | 153 | 6.4 | 14.5 | 0.00 | 0.00 | 0.00 | 64 | 1007.5 |
| 20260501230045 | 12 | 170 | 6.4 | 14.5 | 0.00 | 0.00 | 0.00 | 64 | 1007.5 |
| 20260501225845 | 12 | 176 | 6.4 | 14.5 | 0.00 | 0.00 | 0.00 | 64 | 1007.5 |
| 20260501225645 | 12 | 231 | 6.4 | 12.9 | 0.00 | 0.00 | 0.00 | 64 | 1007.5 |
| 20260501225445 | 12 | 172 | 6.4 | 12.9 | 0.00 | 0.00 | 0.00 | 64 | 1007.5 |
| 20260501225245 | 12 | 171 | 6.4 | 12.9 | 0.00 | 0.00 | 0.00 | 64 | 1007.5 |
| 20260501225045 | 12 | 149 | 6.4 | 12.9 | 0.00 | 0.00 | 0.00 | 64 | 1007.5 |
| 20260501224845 | 12 | 149 | 6.4 | 11.3 | 0.00 | 0.00 | 0.00 | 64 | 1007.5 |
| 20260501224645 | 12 | 168 | 6.4 | 11.3 | 0.00 | 0.00 | 0.00 | 64 | 1007.5 |
| 20260501224445 | 12 | 186 | 6.4 | 11.3 | 0.00 | 0.00 | 0.00 | 63 | 1007.5 |
| 20260501224245 | 12 | 163 | 6.4 | 9.7 | 0.00 | 0.00 | 0.00 | 63 | 1007.5 |
| 20260501224045 | 12 | 169 | 6.4 | 9.7 | 0.00 | 0.00 | 0.00 | 63 | 1007.5 |
| 20260501223845 | 12 | 178 | 6.4 | 9.7 | 0.00 | 0.00 | 0.00 | 63 | 1007.4 |
| 20260501223646 | 12 | 175 | 6.4 | 9.7 | 0.00 | 0.00 | 0.00 | 63 | 1007.5 |
| 20260501223445 | 13 | 154 | 6.4 | 9.7 | 0.00 | 0.00 | 0.00 | 63 | 1007.5 |
| 20260501223245 | 13 | 188 | 6.4 | 14.5 | 0.00 | 0.00 | 0.00 | 62 | 1007.4 |
| 20260501223046 | 13 | 148 | 6.4 | 14.5 | 0.00 | 0.00 | 0.00 | 61 | 1007.4 |
| 20260501222902 | 13 | 150 | 4.8 | 14.5 | 0.00 | 0.00 | 0.00 | 62 | 1007.5 |
| 20260501222646 | 13 | 174 | 4.8 | 14.5 | 0.00 | 0.00 | 0.00 | 62 | 1007.5 |
| 20260501222445 | 13 | 166 | 4.8 | 14.5 | 0.00 | 0.00 | 0.00 | 62 | 1007.5 |
| 20260501222245 | 13 | 168 | 4.8 | 14.5 | 0.00 | 0.00 | 0.00 | 61 | 1007.5 |
| 20260501222045 | 13 | 152 | 4.8 | 14.5 | 0.00 | 0.00 | 0.00 | 60 | 1007.6 |
| 20260501221846 | 13 | 247 | 6.4 | 17.7 | 0.00 | 0.00 | 0.00 | 61 | 1007.6 |
| 20260501221648 | 13 | 168 | 6.4 | 17.7 | 0.00 | 0.00 | 0.00 | 60 | 1007.7 |
| 20260501221446 | 13 | 175 | 6.4 | 17.7 | 0.00 | 0.00 | 0.00 | 59 | 1007.6 |
| 20260501221245 | 13 | 292 | 6.4 | 17.7 | 0.00 | 0.00 | 0.00 | 59 | 1007.6 |
| 20260501221045 | 13 | 166 | 6.4 | 17.7 | 0.00 | 0.00 | 0.00 | 59 | 1007.6 |
| 20260501220846 | 13 | 164 | 6.4 | 12.9 | 0.00 | 0.00 | 0.00 | 59 | 1007.6 |
| 20260501220646 | 13 | 164 | 6.4 | 14.5 | 0.00 | 0.00 | 0.00 | 59 | 1007.6 |
| 20260501220446 | 13 | 177 | 8.0 | 17.7 | 0.00 | 0.00 | 0.00 | 60 | 1007.6 |
| 20260501220247 | 13 | 186 | 9.7 | 17.7 | 0.00 | 0.00 | 0.00 | 60 | 1007.6 |
| 20260501220117 | 13 | 250 | 9.7 | 17.7 | 0.00 | 0.00 | 0.00 | 59 | 1007.5 |
| 20260501215901 | 13 | 223 | 9.7 | 17.7 | 0.00 | 0.00 | 0.00 | 60 | 1007.6 |
| 20260501215644 | 13 | 155 | 9.7 | 17.7 | 0.00 | 0.00 | 0.00 | 60 | 1007.6 |
| 20260501215444 | 13 | 181 | 9.7 | 19.3 | 0.00 | 0.00 | 0.00 | 59 | 1007.6 |
| 20260501215245 | 13 | 168 | 9.7 | 19.3 | 0.00 | 0.00 | 0.00 | 59 | 1007.6 |
| 20260501215044 | 13 | 163 | 9.7 | 19.3 | 0.00 | 0.00 | 0.00 | 59 | 1007.5 |
| 20260501214844 | 13 | 204 | 9.7 | 19.3 | 0.00 | 0.00 | 0.00 | 59 | 1007.5 |
| 20260501214645 | 13 | 181 | 9.7 | 19.3 | 0.00 | 0.00 | 0.00 | 59 | 1007.6 |
| 20260501214444 | 13 | 170 | 9.7 | 17.7 | 0.00 | 0.00 | 0.00 | 58 | 1007.6 |
| 20260501214244 | 13 | 176 | 9.7 | 17.7 | 0.00 | 0.00 | 0.00 | 57 | 1007.5 |
| 20260501214044 | 13 | 181 | 9.7 | 17.7 | 0.00 | 0.00 | 0.00 | 57 | 1007.5 |
| 20260501213901 | 13 | 177 | 9.7 | 16.1 | 0.00 | 0.00 | 0.00 | 57 | 1007.4 |
| 20260501213645 | 13 | 172 | 9.7 | 19.3 | 0.00 | 0.00 | 0.00 | 57 | 1007.4 |
| 20260501213445 | 13 | 179 | 9.7 | 19.3 | 0.00 | 0.00 | 0.00 | 56 | 1007.3 |
| 20260501213244 | 13 | 186 | 9.7 | 19.3 | 0.00 | 0.00 | 0.00 | 57 | 1007.2 |
| 20260501213044 | 13 | 172 | 9.7 | 19.3 | 0.00 | 0.00 | 0.00 | 56 | 1007.3 |
| 20260501212845 | 14 | 196 | 9.7 | 19.3 | 0.00 | 0.03 | 0.00 | 55 | 1007.3 |
| 20260501212645 | 14 | 164 | 9.7 | 17.7 | 0.00 | 0.05 | 0.00 | 54 | 1007.3 |
| 20260501212445 | 14 | 180 | 8.0 | 17.7 | 0.00 | 0.10 | 0.00 | 54 | 1007.3 |
| 20260501212245 | 14 | 177 | 8.0 | 17.7 | 0.00 | 0.13 | 0.00 | 54 | 1007.3 |
| 20260501212045 | 14 | 185 | 8.0 | 17.7 | 0.00 | 0.13 | 0.00 | 54 | 1007.3 |
| 20260501211845 | 14 | 178 | 8.0 | 17.7 | 0.00 | 0.13 | 0.00 | 53 | 1007.3 |
| 20260501211644 | 14 | 162 | 8.0 | 17.7 | 0.00 | 0.13 | 0.00 | 53 | 1007.3 |
| 20260501211445 | 14 | 161 | 8.0 | 17.7 | 0.00 | 0.13 | 0.00 | 53 | 1007.3 |
| 20260501211245 | 14 | 184 | 8.0 | 17.7 | 0.00 | 0.13 | 0.00 | 53 | 1007.3 |
| 20260501211044 | 15 | 207 | 8.0 | 17.7 | 0.00 | 0.13 | 0.00 | 53 | 1007.3 |
| 20260501210844 | 15 | 183 | 8.0 | 17.7 | 0.00 | 0.13 | 0.00 | 51 | 1007.2 |
| 20260501210645 | 15 | 198 | 6.4 | 17.7 | 0.00 | 0.13 | 0.00 | 50 | 1007.2 |
| 20260501210440 | 15 | 204 | 6.4 | 16.1 | 0.00 | 0.13 | 0.00 | 50 | 1007.2 |
| 20260501210244 | 15 | 137 | 6.4 | 16.1 | 0.00 | 0.13 | 0.00 | 50 | 1007.2 |
| 20260501210043 | 15 | 146 | 6.4 | 16.1 | 0.00 | 0.13 | 0.00 | 49 | 1007.2 |
| 20260501205843 | 15 | 163 | 6.4 | 16.1 | 0.00 | 0.13 | 0.00 | 48 | 1007.1 |
| 20260501205643 | 15 | 187 | 6.4 | 16.1 | 0.00 | 0.13 | 0.00 | 48 | 1007.1 |
| 20260501205442 | 15 | 231 | 6.4 | 16.1 | 0.00 | 0.13 | 0.00 | 47 | 1007.1 |
| 20260501205239 | 16 | 208 | 6.4 | 16.1 | 0.00 | 0.13 | 0.00 | 47 | 1007.1 |
| 20260501205040 | 16 | 199 | 6.4 | 16.1 | 0.00 | 0.13 | 0.00 | 47 | 1007.0 |
| 20260501204835 | 16 | 182 | 6.4 | 14.5 | 0.00 | 0.13 | 0.00 | 48 | 1007.0 |
| 20260501204635 | 16 | 169 | 6.4 | 14.5 | 0.00 | 0.13 | 0.00 | 47 | 1007.0 |
| 20260501204435 | 16 | 53 | 6.4 | 14.5 | 0.00 | 0.13 | 0.00 | 47 | 1007.0 |
| 20260501204234 | 16 | 201 | 6.4 | 14.5 | 0.00 | 0.13 | 0.00 | 46 | 1007.1 |
| 20260501204035 | 16 | 169 | 6.4 | 14.5 | 0.00 | 0.13 | 0.00 | 46 | 1007.1 |
| 20260501203858 | 16 | 95 | 6.4 | 14.5 | 0.00 | 0.13 | 0.00 | 47 | 1007.0 |
| 20260501203635 | 16 | 180 | 6.4 | 14.5 | 0.00 | 0.13 | 0.00 | 47 | 1007.0 |
| 20260501203435 | 16 | 184 | 6.4 | 14.5 | 0.00 | 0.13 | 0.00 | 46 | 1007.0 |
| 20260501203235 | 16 | 160 | 6.4 | 12.9 | 0.00 | 0.13 | 0.00 | 47 | 1006.9 |
| 20260501203035 | 16 | 194 | 6.4 | 12.9 | 0.00 | 0.13 | 0.00 | 46 | 1007.0 |
| 20260501202836 | 16 | 157 | 6.4 | 11.3 | 0.00 | 0.13 | 0.00 | 47 | 1006.9 |
| 20260501202635 | 16 | 138 | 6.4 | 14.5 | 0.00 | 0.13 | 0.00 | 47 | 1006.9 |
| 20260501202435 | 16 | 170 | 6.4 | 14.5 | 0.00 | 0.13 | 0.00 | 46 | 1006.9 |
| 20260501202235 | 16 | 191 | 6.4 | 14.5 | 0.00 | 0.13 | 0.00 | 46 | 1006.9 |
| 20260501202035 | 16 | 212 | 6.4 | 14.5 | 0.00 | 0.13 | 0.00 | 47 | 1006.9 |
| 20260501201834 | 16 | 185 | 6.4 | 14.5 | 0.00 | 0.13 | 0.00 | 46 | 1006.9 |
| 20260501201635 | 16 | 172 | 6.4 | 14.5 | 0.00 | 0.13 | 0.00 | 45 | 1006.9 |
| 20260501201435 | 16 | 126 | 6.4 | 14.5 | 0.00 | 0.13 | 0.00 | 46 | 1006.9 |
| 20260501201235 | 16 | 174 | 6.4 | 14.5 | 0.00 | 0.13 | 0.00 | 48 | 1007.0 |
| 20260501201035 | 17 | 179 | 6.4 | 14.5 | 0.00 | 0.13 | 0.00 | 47 | 1006.9 |
| 20260501200836 | 17 | 216 | 6.4 | 14.5 | 0.00 | 0.13 | 0.00 | 45 | 1006.9 |
| 20260501200635 | 17 | 181 | 4.8 | 14.5 | 0.00 | 0.13 | 0.00 | 44 | 1006.9 |
| 20260501200435 | 17 | 184 | 4.8 | 14.5 | 0.00 | 0.13 | 0.00 | 40 | 1006.8 |
| 20260501200235 | 17 | 217 | 4.8 | 14.5 | 0.00 | 0.13 | 0.00 | 40 | 1006.7 |
| 20260501200036 | 17 | 237 | 4.8 | 14.5 | 0.00 | 0.13 | 0.00 | 39 | 1006.7 |
| 20260501195835 | 17 | 243 | 4.8 | 14.5 | 0.00 | 0.13 | 0.00 | 38 | 1006.7 |
| 20260501195635 | 17 | 197 | 4.8 | 14.5 | 0.00 | 0.13 | 0.00 | 37 | 1006.6 |
| 20260501195436 | 17 | 199 | 4.8 | 9.7 | 0.00 | 0.13 | 0.00 | 38 | 1006.7 |
| 20260501195236 | 17 | 175 | 3.2 | 9.7 | 0.00 | 0.13 | 0.00 | 38 | 1006.7 |
| 20260501195035 | 17 | 314 | 3.2 | 9.7 | 0.00 | 0.13 | 0.00 | 40 | 1006.7 |
| 20260501194900 | 17 | 235 | 3.2 | 9.7 | 0.00 | 0.13 | 0.00 | 40 | 1006.6 |
| 20260501194636 | 17 | 180 | 1.6 | 9.7 | 0.00 | 0.13 | 0.00 | 42 | 1006.6 |
| 20260501194435 | 17 | 1 | 3.2 | 12.9 | 0.00 | 0.13 | 0.00 | 40 | 1006.7 |
| 20260501194235 | 17 | 118 | 3.2 | 12.9 | 0.00 | 0.13 | 0.00 | 40 | 1006.8 |
| 20260501194036 | 17 | 171 | 3.2 | 12.9 | 0.00 | 0.13 | 0.00 | 39 | 1006.9 |
| 20260501193832 | 17 | 227 | 3.2 | 12.9 | 0.00 | 0.13 | 0.00 | 39 | 1006.9 |
| 20260501193633 | 17 | 328 | 4.8 | 12.9 | 0.00 | 0.13 | 0.00 | 39 | 1007.0 |
| 20260501193430 | 17 | 221 | 4.8 | 12.9 | 0.00 | 0.13 | 0.00 | 38 | 1007.0 |
| 20260501193230 | 18 | 325 | 4.8 | 12.9 | 0.00 | 0.13 | 0.00 | 36 | 1006.9 |
| 20260501193030 | 18 | 264 | 3.2 | 12.9 | 0.00 | 0.13 | 0.00 | 38 | 1007.0 |
| 20260501192830 | 17 | 324 | 3.2 | 12.9 | 0.00 | 0.13 | 0.00 | 38 | 1007.0 |
| 20260501192630 | 17 | 199 | 3.2 | 9.7 | 0.00 | 0.13 | 0.00 | 38 | 1007.0 |
| 20260501192429 | 17 | 0 | 3.2 | 11.3 | 0.00 | 0.13 | 0.00 | 37 | 1007.0 |
| 20260501192230 | 17 | 15 | 3.2 | 11.3 | 0.00 | 0.13 | 0.00 | 36 | 1007.0 |
| 20260501192030 | 17 | 0 | 3.2 | 11.3 | 0.00 | 0.13 | 0.00 | 35 | 1007.0 |
| 20260501191827 | 17 | 333 | 3.2 | 11.3 | 0.00 | 0.13 | 0.00 | 36 | 1007.0 |
| 20260501191627 | 17 | 195 | 3.2 | 11.3 | 0.00 | 0.13 | 0.00 | 38 | 1007.1 |
| 20260501191427 | 17 | 307 | 3.2 | 11.3 | 0.00 | 0.13 | 0.00 | 40 | 1007.1 |
| 20260501191227 | 17 | 279 | 3.2 | 9.7 | 0.00 | 0.13 | 0.00 | 41 | 1007.2 |
| 20260501191027 | 17 | 0 | 3.2 | 14.5 | 0.00 | 0.13 | 0.00 | 40 | 1007.2 |
| 20260501190829 | 17 | 177 | 4.8 | 14.5 | 0.00 | 0.13 | 0.00 | 40 | 1007.3 |
| 20260501190627 | 17 | 218 | 4.8 | 14.5 | 0.00 | 0.13 | 0.00 | 38 | 1007.3 |
| 20260501190427 | 17 | 171 | 3.2 | 14.5 | 0.00 | 0.13 | 0.00 | 37 | 1007.3 |
| 20260501190227 | 17 | 327 | 4.8 | 14.5 | 0.00 | 0.13 | 0.00 | 35 | 1007.3 |
| 20260501190027 | 17 | 248 | 3.2 | 14.5 | 0.00 | 0.13 | 0.00 | 35 | 1007.3 |
| 20260501185827 | 17 | 357 | 3.2 | 12.9 | 0.00 | 0.13 | 0.00 | 34 | 1007.3 |
| 20260501185628 | 17 | 340 | 3.2 | 12.9 | 0.00 | 0.13 | 0.00 | 36 | 1007.4 |
| 20260501185428 | 17 | 194 | 3.2 | 12.9 | 0.00 | 0.13 | 0.00 | 35 | 1007.4 |
| 20260501185226 | 17 | 330 | 3.2 | 12.9 | 0.00 | 0.13 | 0.00 | 36 | 1007.5 |
| 20260501185027 | 17 | 253 | 3.2 | 9.7 | 0.00 | 0.13 | 0.00 | 36 | 1007.4 |
| 20260501184857 | 17 | 98 | 3.2 | 14.5 | 0.00 | 0.13 | 0.00 | 35 | 1007.5 |
| 20260501184627 | 17 | 135 | 3.2 | 14.5 | 0.00 | 0.13 | 0.00 | 35 | 1007.6 |
| 20260501184427 | 17 | 318 | 3.2 | 14.5 | 0.00 | 0.13 | 0.00 | 35 | 1007.7 |
| 20260501184227 | 17 | 354 | 3.2 | 14.5 | 0.00 | 0.13 | 0.00 | 35 | 1007.6 |
| 20260501184028 | 17 | 95 | 3.2 | 14.5 | 0.00 | 0.13 | 0.00 | 35 | 1007.7 |
| 20260501183827 | 17 | 16 | 3.2 | 12.9 | 0.00 | 0.13 | 0.00 | 34 | 1007.7 |
| 20260501183628 | 17 | 17 | 3.2 | 9.7 | 0.00 | 0.13 | 0.00 | 36 | 1007.7 |
| 20260501183427 | 17 | 107 | 3.2 | 9.7 | 0.00 | 0.13 | 0.00 | 37 | 1007.7 |
| 20260501183227 | 17 | 103 | 3.2 | 9.7 | 0.00 | 0.13 | 0.00 | 35 | 1007.7 |
| 20260501183025 | 17 | 187 | 3.2 | 14.5 | 0.00 | 0.13 | 0.00 | 34 | 1007.8 |
| 20260501182825 | 17 | 63 | 3.2 | 14.5 | 0.00 | 0.13 | 0.00 | 35 | 1007.7 |
| 20260501182624 | 17 | 0 | 3.2 | 14.5 | 0.00 | 0.13 | 0.00 | 35 | 1007.7 |
| 20260501182425 | 17 | 334 | 3.2 | 14.5 | 0.00 | 0.13 | 0.00 | 35 | 1007.7 |
| 20260501182226 | 17 | 177 | 3.2 | 14.5 | 0.00 | 0.13 | 0.00 | 37 | 1007.8 |
| 20260501182021 | 17 | 242 | 3.2 | 14.5 | 0.00 | 0.13 | 0.00 | 38 | 1007.7 |
| 20260501181822 | 16 | 127 | 3.2 | 11.3 | 0.00 | 0.13 | 0.00 | 36 | 1007.7 |
| 20260501181622 | 16 | 60 | 3.2 | 11.3 | 0.00 | 0.13 | 0.00 | 36 | 1007.8 |
| 20260501181422 | 16 | 231 | 4.8 | 11.3 | 0.00 | 0.13 | 0.00 | 36 | 1007.7 |
| 20260501181222 | 17 | 347 | 4.8 | 11.3 | 0.00 | 0.13 | 0.00 | 36 | 1007.7 |
| 20260501181022 | 17 | 19 | 4.8 | 11.3 | 0.00 | 0.13 | 0.00 | 36 | 1007.7 |
| 20260501180822 | 17 | 253 | 4.8 | 11.3 | 0.00 | 0.13 | 0.00 | 35 | 1007.7 |
| 20260501180620 | 17 | 237 | 3.2 | 11.3 | 0.00 | 0.13 | 0.00 | 36 | 1007.7 |
| 20260501180420 | 17 | 324 | 3.2 | 11.3 | 0.00 | 0.13 | 0.00 | 36 | 1007.7 |
| 20260501180220 | 17 | 329 | 4.8 | 11.3 | 0.00 | 0.13 | 0.00 | 35 | 1007.7 |
| 20260501180019 | 17 | 12 | 3.2 | 9.7 | 0.00 | 0.13 | 0.00 | 36 | 1007.8 |
| 20260501175819 | 17 | 343 | 3.2 | 9.7 | 0.00 | 0.13 | 0.00 | 37 | 1007.8 |
| 20260501175620 | 17 | 32 | 3.2 | 9.7 | 0.00 | 0.13 | 0.00 | 37 | 1007.7 |
| 20260501175419 | 17 | 142 | 3.2 | 11.3 | 0.00 | 0.13 | 0.00 | 36 | 1007.7 |
| 20260501175221 | 17 | 284 | 3.2 | 11.3 | 0.00 | 0.13 | 0.00 | 37 | 1007.8 |
| 20260501175019 | 17 | 26 | 3.2 | 11.3 | 0.00 | 0.13 | 0.00 | 36 | 1007.8 |
| 20260501174852 | 17 | 337 | 3.2 | 11.3 | 0.00 | 0.13 | 0.00 | 35 | 1007.9 |
| 20260501174619 | 17 | 149 | 3.2 | 14.5 | 0.00 | 0.13 | 0.00 | 36 | 1007.9 |
| 20260501174419 | 17 | 103 | 3.2 | 14.5 | 0.00 | 0.13 | 0.00 | 37 | 1007.9 |
| 20260501174221 | 16 | 67 | 3.2 | 14.5 | 0.00 | 0.13 | 0.00 | 39 | 1007.9 |
| 20260501174019 | 16 | 308 | 3.2 | 14.5 | 0.00 | 0.13 | 0.00 | 36 | 1007.9 |
| 20260501173819 | 17 | 200 | 3.2 | 14.5 | 0.00 | 0.13 | 0.00 | 35 | 1007.9 |
| 20260501173619 | 17 | 251 | 3.2 | 14.5 | 0.00 | 0.13 | 0.00 | 36 | 1007.9 |
| 20260501173419 | 16 | 216 | 3.2 | 11.3 | 0.00 | 0.13 | 0.00 | 38 | 1007.9 |
| 20260501173221 | 16 | 320 | 3.2 | 11.3 | 0.00 | 0.13 | 0.00 | 37 | 1008.0 |
| 20260501173020 | 16 | 63 | 3.2 | 14.5 | 0.00 | 0.13 | 0.00 | 36 | 1008.0 |
| 20260501172819 | 16 | 255 | 4.8 | 16.1 | 0.00 | 0.13 | 0.00 | 37 | 1008.1 |
| 20260501172619 | 16 | 290 | 4.8 | 16.1 | 0.00 | 0.13 | 0.00 | 37 | 1008.1 |
| 20260501172417 | 16 | 73 | 4.8 | 16.1 | 0.00 | 0.13 | 0.00 | 36 | 1008.2 |
| 20260501172216 | 16 | 196 | 4.8 | 16.1 | 0.00 | 0.13 | 0.00 | 37 | 1008.2 |
| 20260501172017 | 16 | 299 | 4.8 | 16.1 | 0.00 | 0.13 | 0.00 | 38 | 1008.0 |
| 20260501171814 | 16 | 154 | 3.2 | 9.7 | 0.00 | 0.13 | 0.00 | 37 | 1008.1 |
| 20260501171614 | 16 | 237 | 3.2 | 9.7 | 0.00 | 0.13 | 0.00 | 38 | 1008.0 |
| 20260501171413 | 16 | 261 | 3.2 | 9.7 | 0.00 | 0.13 | 0.00 | 40 | 1008.1 |
| 20260501171214 | 16 | 179 | 3.2 | 9.7 | 0.00 | 0.13 | 0.00 | 38 | 1008.2 |
| 20260501171013 | 16 | 325 | 3.2 | 11.3 | 0.00 | 0.13 | 0.00 | 38 | 1008.2 |
| 20260501170813 | 15 | 349 | 3.2 | 14.5 | 0.00 | 0.13 | 0.00 | 40 | 1008.2 |
| 20260501170613 | 15 | 359 | 3.2 | 14.5 | 0.00 | 0.13 | 0.00 | 40 | 1008.1 |
| 20260501170413 | 15 | 50 | 4.8 | 14.5 | 0.00 | 0.13 | 0.00 | 39 | 1008.1 |
| 20260501170213 | 15 | 40 | 4.8 | 14.5 | 0.00 | 0.13 | 0.00 | 37 | 1008.1 |
| 20260501170011 | 15 | 346 | 4.8 | 14.5 | 0.00 | 0.13 | 0.00 | 37 | 1008.2 |
| 20260501165811 | 15 | 220 | 4.8 | 14.5 | 0.00 | 0.13 | 0.00 | 38 | 1008.2 |
| 20260501165610 | 15 | 127 | 4.8 | 14.5 | 0.00 | 0.13 | 0.00 | 37 | 1008.3 |
| 20260501165408 | 16 | 27 | 4.8 | 14.5 | 0.00 | 0.13 | 0.00 | 37 | 1008.3 |
| 20260501165208 | 16 | 315 | 4.8 | 14.5 | 0.00 | 0.13 | 0.00 | 37 | 1008.3 |
| 20260501165008 | 16 | 310 | 3.2 | 14.5 | 0.00 | 0.13 | 0.00 | 37 | 1008.4 |
| 20260501164809 | 16 | 317 | 3.2 | 12.9 | 0.00 | 0.13 | 0.00 | 37 | 1008.4 |
| 20260501164608 | 16 | 25 | 4.8 | 12.9 | 0.00 | 0.13 | 0.00 | 36 | 1008.5 |
| 20260501164408 | 16 | 245 | 4.8 | 12.9 | 0.00 | 0.13 | 0.00 | 37 | 1008.5 |
| 20260501164205 | 16 | 265 | 4.8 | 12.9 | 0.00 | 0.13 | 0.00 | 39 | 1008.5 |
| 20260501164006 | 16 | 358 | 4.8 | 12.9 | 0.00 | 0.13 | 0.00 | 36 | 1008.4 |
| 20260501163805 | 16 | 257 | 3.2 | 11.3 | 0.00 | 0.13 | 0.00 | 37 | 1008.5 |
| 20260501163605 | 16 | 237 | 3.2 | 11.3 | 0.00 | 0.13 | 0.00 | 38 | 1008.5 |
| 20260501163405 | 16 | 159 | 3.2 | 12.9 | 0.00 | 0.13 | 0.00 | 37 | 1008.5 |
| 20260501163205 | 16 | 284 | 3.2 | 12.9 | 0.00 | 0.13 | 0.00 | 38 | 1008.5 |
| 20260501163005 | 16 | 200 | 3.2 | 12.9 | 0.00 | 0.13 | 0.00 | 37 | 1008.5 |
| 20260501162805 | 16 | 48 | 4.8 | 12.9 | 0.00 | 0.13 | 0.00 | 38 | 1008.5 |
| 20260501162606 | 16 | 248 | 4.8 | 12.9 | 0.00 | 0.13 | 0.00 | 37 | 1008.5 |
| 20260501162406 | 15 | 85 | 3.2 | 11.3 | 0.00 | 0.13 | 0.00 | 38 | 1008.5 |
| 20260501162205 | 15 | 217 | 3.2 | 11.3 | 0.00 | 0.13 | 0.00 | 37 | 1008.5 |
| 20260501162005 | 15 | 69 | 3.2 | 11.3 | 0.00 | 0.13 | 0.00 | 38 | 1008.5 |
| 20260501161805 | 15 | 286 | 3.2 | 11.3 | 0.00 | 0.13 | 0.00 | 39 | 1008.6 |
| 20260501161605 | 15 | 242 | 3.2 | 11.3 | 0.00 | 0.13 | 0.00 | 38 | 1008.5 |
| 20260501161406 | 15 | 241 | 4.8 | 14.5 | 0.00 | 0.13 | 0.00 | 37 | 1008.6 |
| 20260501161205 | 15 | 322 | 3.2 | 14.5 | 0.00 | 0.13 | 0.00 | 38 | 1008.7 |
| 20260501161005 | 15 | 224 | 4.8 | 17.7 | 0.00 | 0.13 | 0.00 | 39 | 1008.7 |
| 20260501160805 | 15 | 278 | 6.4 | 17.7 | 0.00 | 0.13 | 0.00 | 40 | 1008.8 |
| 20260501160602 | 15 | 241 | 6.4 | 17.7 | 0.00 | 0.13 | 0.00 | 37 | 1008.7 |
| 20260501160402 | 15 | 230 | 6.4 | 17.7 | 0.00 | 0.13 | 0.00 | 41 | 1008.8 |
| 20260501160203 | 15 | 235 | 8.0 | 17.7 | 0.00 | 0.13 | 0.00 | 40 | 1008.9 |
| 20260501160000 | 15 | 234 | 6.4 | 16.1 | 0.00 | 0.13 | 0.00 | 39 | 1008.8 |
| 20260501155759 | 15 | 264 | 4.8 | 16.1 | 0.00 | 0.13 | 0.00 | 39 | 1008.9 |
| 20260501155557 | 15 | 201 | 4.8 | 16.1 | 0.00 | 0.13 | 0.00 | 39 | 1008.9 |
| 20260501155354 | 15 | 238 | 3.2 | 14.5 | 0.00 | 0.13 | 0.00 | 40 | 1009.0 |